This is the latest recevied weather packets stored in our database for station/object KD4MBW. If no packets are shown the sender has not sent any weather packets the latest 10 day(s).
| Time | Temp. | Humidity | Pressure | Rain* | Wind** | Luminosity | Snow |
|---|---|---|---|---|---|---|---|
| 1787941086 | 30.56° C | 79% | 1016.8 hPa | 0 mm | - | 788 W/m² | - |
| 1787940781 | 30° C | 81% | 1016.7 hPa | 0 mm | - | 871 W/m² | - |
| 1787940478 | 30° C | 80% | 1016.6 hPa | 0 mm | - | 744 W/m² | - |
| 1787940173 | 30° C | 82% | 1016.8 hPa | 0 mm | - | 722 W/m² | - |
| 1787939872 | 29.44° C | 80% | 1016.7 hPa | 0 mm | - | 774 W/m² | - |
| 1787939567 | 30° C | 79% | 1016.7 hPa | 0 mm | - | 788 W/m² | - |
| 1787939261 | 30° C | 80% | 1016.6 hPa | 0 mm | - | 668 W/m² | - |
| 1787938956 | 30° C | 81% | 1016.8 hPa | 0 mm | - | 822 W/m² | - |
| 1787938655 | 29.44° C | 82% | 1016.9 hPa | 0 mm | - | 769 W/m² | - |
| 1787938352 | 30° C | 80% | 1016.9 hPa | 0 mm | - | 752 W/m² | - |
| 1787938047 | 29.44° C | 81% | 1017.1 hPa | 0 mm | - | 796 W/m² | - |
| 1787937742 | 30° C | 80% | 1017.4 hPa | 0 mm | - | 812 W/m² | - |
| 1787937438 | 29.44° C | 82% | 1017.3 hPa | 0 mm | - | 816 W/m² | - |
| 1787937135 | 29.44° C | 82% | 1017.7 hPa | 0 mm | - | 732 W/m² | - |
| 1787936834 | 29.44° C | 82% | 1017.6 hPa | 0 mm | - | 850 W/m² | - |
| 1787936529 | 30° C | 82% | 1017.6 hPa | 0 mm | - | 943 W/m² | - |
| 1787936227 | 29.44° C | 83% | 1018 hPa | 0 mm | - | 679 W/m² | - |
| 1787935924 | 28.89° C | 83% | 1017.8 hPa | 0 mm | - | 526 W/m² | - |
| 1787935618 | 28.89° C | 85% | 1017.8 hPa | 0 mm | - | 479 W/m² | - |
| 1787935315 | 28.89° C | 87% | 1018 hPa | 0 mm | - | 888 W/m² | - |
| 1787935009 | 28.33° C | 88% | 1017.9 hPa | 0 mm | - | 702 W/m² | - |
| 1787934705 | 27.78° C | 88% | 1017.9 hPa | 0 mm | - | 470 W/m² | - |
| 1787934404 | 27.78° C | 86% | 1017.9 hPa | 0 mm | - | 570 W/m² | - |
| 1787934103 | 27.78° C | 89% | 1017.9 hPa | 0 mm | - | 454 W/m² | - |
| 1787933802 | 27.22° C | 89% | 1018.1 hPa | 0 mm | - | 514 W/m² | - |
* Rain latest hour (hover to see other rain measurements)
** Current wind speed in m/s (hover to see current wind gust speed)